Wind_Speed
24 25 27 28 29 29 31 32 33 33 33 32 32 32 31 32 32 32 32 33 33 34 36 36 37 37 38 38 39 38 38 38 39 39 39 39 38 38 38 38 38 39 38 38
22 23 25 27 27 28 28 30 32 32 32 32 33 31 30 31 32 32 32 32 32 32 34 35 36 36 37 37 37 37 37 37 37 37 37 37 37 37 37 37 37 38 38 37
20 21 23 23 23 24 25 25 27 28 29 29 29 29 29 30 31 31 32 31 31 32 33 34 34 34 35 36 35 36 36 37 36 36 36 37 36 36 36 36 36 37 36 37
19 19 20 19 20 22 23 23 23 24 25 27 28 28 28 29 29 30 31 31 31 31 31 32 33 34 34 35 35 35 36 36 37 36 36 37 36 36 36 36 36 36 36 36
17 18 19 18 18 19 20 21 21 22 23 24 25 27 28 28 29 29 29 31 31 31 31 31 32 32 32 32 33 35 35 35 36 36 36 36 36 36 36 36 36 36 37 37
17 18 18 18 17 18 19 20 20 20 21 22 23 25 26 27 28 28 29 31 32 32 32 32 32 32 32 33 33 33 34 34 35 36 36 36 36 36 36 36 36 36 36 36
18 18 17 17 17 18 19 19 19 20 20 21 22 23 25 26 27 27 28 30 30 31 31 32 33 33 32 33 33 33 33 34 34 34 35 36 36 35 35 35 36 35 36 36
17 18 17 16 17 18 18 18 17 18 19 20 21 22 23 25 26 26 27 28 28 29 29 30 32 32 32 32 32 33 33 33 32 32 33 35 35 35 35 35 35 35 35 36
15 15 14 15 15 16 16 17 17 18 18 19 20 21 22 24 25 27 28 27 27 28 29 29 30 30 31 31 31 31 32 32 33 33 33 34 34 34 34 34 35 35 35 35
15 14 13 13 14 15 16 17 18 18 18 19 19 20 22 23 24 25 27 28 28 27 27 28 29 29 29 30 30 30 31 31 32 32 33 33 32 32 32 33 33 34 34 34
15 14 14 14 15 15 16 17 17 17 17 18 18 19 20 21 22 23 24 26 27 26 26 26 27 27 28 29 29 29 29 30 31 32 32 32 32 32 32 32 31 32 32 32
15 15 15 15 15 15 16 16 16 17 17 17 18 19 20 20 21 22 24 25 25 26 26 26 26 26 26 27 27 28 29 29 30 30 30 31 30 30 30 30 30 31 31 32
16 16 16 16 17 17 17 17 17 17 18 18 19 19 20 21 21 22 23 25 25 25 26 26 27 27 27 27 27 27 28 29 29 29 30 30 30 30 30 30 30 31 31 32
15 16 16 16 17 17 18 18 19 19 19 20 20 21 21 21 22 22 23 24 25 25 25 26 27 27 28 28 28 28 28 28 29 29 29 29 29 30 30 30 31 31 32 33
15 15 15 16 17 18 18 18 19 19 19 20 20 21 22 22 23 23 24 24 25 25 26 27 28 28 28 28 29 29 29 29 29 29 29 29 29 30 30 31 31 32 32 33
15 15 16 16 17 17 18 18 18 18 19 19 19 20 20 21 22 23 24 25 26 26 27 27 28 28 28 28 28 28 28 29 29 29 29 29 30 31 31 32 32 32 33 33
14 15 16 16 17 18 18 18 19 19 20 20 20 20 20 20 21 22 23 24 25 26 27 27 28 28 28 29 29 29 29 29 30 30 30 30 30 31 32 32 32 33 33 34
15 16 17 17 17 17 18 19 20 20 20 20 21 21 21 21 21 21 22 23 24 25 26 27 27 27 28 28 29 30 30 31 31 31 31 31 31 32 32 32 32 33 33 33
16 16 16 16 17 17 18 19 20 20 20 20 21 21 21 22 22 22 22 23 24 25 25 26 27 27 28 28 29 30 31 32 32 33 33 34 34 33 33 33 33 33 33 33
16 16 17 17 18 18 19 19 20 20 20 20 21 22 22 22 22 22 23 24 24 24 25 26 27 28 29 28 29 30 31 32 33 34 34 34 35 34 34 34 34 34 33 33
16 16 17 17 18 18 19 19 20 21 21 21 22 22 23 22 21 22 22 23 24 25 26 26 27 28 28 29 29 29 30 31 32 33 33 34 34 34 34 34 34 34 34 33
16 17 17 17 18 18 18 19 20 20 21 22 22 22 22 22 22 23 23 23 24 25 25 26 27 28 29 29 30 30 30 30 30 31 31 32 33 33 33 33 33 33 32 32
17 17 17 17 17 18 19 19 20 20 20 20 20 20 21 21 22 22 23 24 24 25 26 27 27 28 29 29 30 30 30 29 29 29 30 30 30 30 30 30 30 30 30 30
17 17 17 17 17 18 18 18 19 19 19 19 19 20 20 21 22 23 23 24 25 25 26 26 27 27 27 27 28 28 28 29 29 29 28 29 29 29 29 28 28 28 28 28
18 18 18 18 18 17 17 17 17 17 18 18 18 19 20 21 22 22 22 23 23 24 24 24 24 24 24 25 25 25 26 26 26 26 26 27 27 27 26 26 26 26 26 26
17 17 18 18 18 17 17 16 16 16 16 17 18 18 19 19 20 21 21 21 22 22 22 22 22 22 22 23 23 23 23 24 24 24 25 25 24 24 24 24 23 23 23 24
17 17 17 17 16 16 16 16 16 16 17 17 18 18 19 19 19 19 20 20 20 20 21 20 20 21 21 21 22 22 23 23 23 23 22 22 22 22 22 22 22 22 22 22
Wind_Direction
257 255 254 252 249 248 248 248 250 250 251 252 250 250 249 248 247 244 243 242 242 243 242 240 239 239 239 239 239 241 242 244 245 247 247 248 250 251 253 256 258 259 260 261
256 256 255 253 250 248 247 248 250 251 251 251 249 249 247 246 247 246 244 244 242 240 241 240 238 239 239 239 239 240 241 243 245 246 247 249 251 252 254 257 258 259 259 261
255 255 256 254 250 248 247 248 252 251 250 249 246 245 244 244 245 245 244 243 240 239 239 240 240 241 239 238 240 241 242 243 245 247 248 249 250 252 255 257 259 259 260 261
256 252 252 252 250 250 250 250 251 251 250 249 247 244 242 242 243 244 243 242 242 241 241 240 241 243 242 242 242 243 244 245 246 248 249 250 251 253 255 257 258 259 259 261
252 251 251 250 251 252 253 253 252 251 249 248 245 244 243 243 242 244 244 242 243 243 243 242 242 242 243 245 245 245 244 245 246 247 248 250 252 254 255 256 258 258 258 260
251 250 249 250 252 254 254 255 253 253 252 249 246 245 244 243 243 243 244 244 243 244 244 242 241 243 244 245 246 247 247 246 247 248 249 250 251 254 254 255 257 257 257 259
253 252 252 252 252 253 255 255 254 256 255 252 249 248 245 242 240 242 243 242 242 242 243 242 241 243 244 246 247 247 248 249 250 250 251 251 252 254 255 255 257 257 258 259
253 252 251 254 254 252 255 257 257 256 257 255 251 248 245 243 241 242 242 240 239 240 241 242 242 243 244 246 246 246 247 249 249 250 251 253 254 255 255 257 257 258 260 261
256 256 255 256 256 255 255 258 257 257 257 255 254 252 249 246 241 241 240 240 240 241 242 243 244 244 244 245 246 247 249 250 250 250 251 253 254 255 256 258 258 259 261 262
258 255 256 255 256 256 255 258 257 257 256 256 255 252 249 246 243 240 239 239 240 242 243 244 245 246 246 246 247 248 249 249 250 251 252 253 254 255 257 257 258 259 261 262
261 257 254 251 255 257 257 258 258 258 257 259 257 253 251 250 247 244 242 241 240 241 242 244 245 245 246 247 248 248 249 250 250 251 252 253 255 256 258 259 259 260 261 261
262 258 257 255 256 258 260 260 261 261 262 263 261 256 251 249 247 246 246 245 244 244 244 244 244 245 246 247 248 249 249 250 251 250 251 253 254 255 257 258 259 260 261 262
264 263 262 259 258 259 261 261 262 262 265 268 264 259 255 252 250 249 249 248 246 245 245 244 245 245 246 247 248 250 250 250 250 250 251 252 253 254 256 258 261 262 263 265
267 265 264 261 259 259 262 265 265 264 267 270 268 263 259 256 254 253 253 251 249 247 246 245 245 245 245 246 248 249 251 251 251 251 252 252 253 254 255 258 261 263 265 267
270 267 265 262 262 263 265 267 267 267 268 271 270 265 260 257 256 255 253 252 251 251 249 248 247 247 247 248 249 249 250 251 252 254 254 254 255 256 257 260 262 264 266 267
273 270 267 266 266 267 267 268 268 269 271 272 271 267 262 259 258 257 254 254 253 253 252 251 251 250 249 250 251 252 253 253 254 256 257 257 258 259 261 263 265 266 267 269
278 275 273 273 271 269 268 266 267 268 270 271 269 266 263 261 259 257 255 255 254 253 253 253 253 252 253 253 254 254 255 255 256 257 258 260 261 263 264 265 266 267 268 268
283 280 280 279 276 272 270 268 269 268 268 267 266 265 263 262 260 258 256 256 256 255 254 254 254 254 255 256 257 256 256 256 258 259 260 262 264 266 266 267 267 269 270 270
285 284 282 281 279 277 276 274 273 271 268 267 266 266 265 263 261 259 257 257 257 257 256 255 254 255 256 257 258 257 257 258 259 261 262 264 266 267 268 268 269 270 271 270
287 285 284 283 281 278 276 275 273 271 269 268 268 267 266 265 262 260 260 259 258 257 256 256 256 256 257 258 259 259 259 259 260 261 262 264 265 266 267 268 269 270 270 269
289 288 287 285 283 280 277 275 273 271 270 270 269 267 266 264 262 262 263 262 260 260 260 258 258 258 259 260 261 263 263 262 262 263 263 263 264 265 265 266 267 268 268 269
292 291 289 287 285 282 279 276 275 274 273 271 270 268 266 264 264 265 266 264 263 263 263 262 261 261 262 263 263 265 266 266 265 265 265 264 265 265 265 265 266 267 267 268
294 294 293 292 289 285 282 280 279 277 275 273 270 267 265 266 267 268 269 267 265 265 265 265 264 264 264 265 265 266 266 266 267 267 266 266 266 265 264 264 265 265 266 267
296 296 296 294 292 289 286 284 282 279 277 274 271 269 268 269 270 271 272 270 269 268 269 268 267 266 266 266 266 267 266 266 266 266 266 266 265 265 264 264 264 264 265 266
295 294 293 293 293 292 290 288 286 283 279 276 275 274 273 272 272 273 274 273 271 270 270 268 267 265 266 266 267 266 266 265 265 265 266 266 265 265 264 263 262 262 262 263
296 294 293 293 292 291 289 287 286 284 281 279 278 277 277 275 274 273 274 272 270 269 268 266 264 264 265 265 265 266 266 266 266 266 266 265 264 263 261 260 259 259 260 262
298 297 296 296 295 293 291 289 287 286 284 282 281 280 279 278 276 274 273 272 270 268 266 264 264 265 266 265 265 266 266 266 265 265 264 262 261 260 258 257 257 258 259 261
Height
5527 5528 5529 5530 5533 5535 5536 5538 5540 5542 5544 5547 5549 5552 5553 5555 5557 5560 5563 5566 5570 5572 5575 5578 5581 5584 5588 5591 5594 5597 5600 5603 5605 5608 5610 5613 5615 5617 5619 5620 5621 5622 5623 5623
5520 5521 5521 5522 5525 5526 5528 5530 5531 5533 5536 5538 5540 5542 5544 5546 5549 5551 5554 5557 5560 5563 5565 5568 5571 5575 5578 5581 5585 5588 5591 5593 5596 5598 5601 5603 5605 5607 5608 5610 5611 5612 5612 5613
5513 5514 5514 5515 5518 5519 5520 5522 5523 5525 5528 5529 5531 5534 5536 5538 5541 5543 5546 5548 5551 5554 5557 5559 5562 5565 5568 5571 5575 5578 5581 5584 5587 5589 5591 5594 5596 5597 5599 5600 5601 5602 5602 5603
5506 5508 5508 5512 5511 5512 5513 5515 5516 5517 5519 5521 5523 5525 5528 5530 5532 5535 5537 5540 5543 5545 5548 5551 5553 5556 5559 5562 5565 5568 5571 5574 5577 5579 5582 5584 5586 5588 5589 5589 5590 5591 5592 5593
5500 5501 5502 5505 5505 5506 5507 5508 5509 5510 5512 5513 5515 5518 5520 5522 5524 5527 5529 5532 5534 5537 5540 5542 5545 5548 5551 5554 5556 5559 5562 5565 5567 5570 5572 5574 5576 5578 5579 5580 5580 5581 5582 5583
5495 5495 5497 5500 5501 5501 5502 5502 5503 5504 5505 5506 5508 5511 5513 5515 5517 5519 5521 5524 5526 5529 5531 5534 5537 5539 5542 5545 5548 5550 5553 5555 5558 5560 5562 5564 5566 5567 5568 5569 5570 5571 5572 5573
5490 5490 5491 5494 5495 5496 5498 5498 5497 5498 5498 5500 5501 5503 5505 5507 5509 5511 5513 5515 5518 5520 5523 5525 5528 5531 5533 5536 5538 5541 5543 5546 5548 5551 5552 5554 5556 5557 5559 5560 5560 5561 5562 5563
5485 5486 5489 5488 5489 5490 5490 5491 5491 5492 5493 5493 5494 5496 5497 5499 5501 5503 5505 5507 5509 5512 5514 5517 5519 5522 5525 5527 5529 5532 5534 5537 5539 5541 5543 5545 5546 5547 5549 5550 5551 5552 5552 5553
5481 5483 5483 5482 5483 5483 5484 5485 5486 5486 5487 5488 5489 5490 5491 5492 5494 5496 5498 5500 5502 5504 5506 5508 5511 5513 5516 5519 5521 5523 5525 5528 5530 5532 5534 5535 5536 5538 5539 5540 5541 5542 5543 5543
5476 5477 5477 5477 5478 5478 5479 5479 5480 5480 5481 5482 5482 5483 5485 5486 5487 5489 5490 5492 5495 5497 5499 5501 5503 5505 5508 5510 5512 5514 5516 5518 5520 5522 5524 5526 5527 5528 5529 5530 5531 5532 5533 5534
5471 5472 5472 5473 5473 5473 5474 5474 5474 5475 5475 5476 5476 5477 5478 5479 5480 5482 5484 5486 5487 5489 5492 5494 5495 5497 5500 5502 5504 5505 5507 5509 5511 5513 5515 5516 5517 5519 5520 5521 5521 5523 5523 5524
5467 5467 5467 5468 5468 5468 5469 5469 5469 5469 5470 5470 5470 5471 5472 5473 5474 5475 5477 5479 5480 5482 5484 5486 5488 5490 5492 5494 5496 5498 5499 5501 5502 5504 5506 5507 5508 5510 5510 5512 5512 5513 5514 5515
5462 5462 5462 5463 5463 5463 5463 5463 5464 5464 5464 5464 5464 5465 5465 5466 5468 5469 5470 5472 5473 5475 5477 5479 5481 5483 5484 5486 5488 5490 5491 5493 5494 5495 5497 5498 5500 5501 5502 5503 5503 5504 5505 5505
5457 5457 5457 5457 5457 5457 5457 5457 5457 5458 5458 5458 5458 5458 5459 5460 5461 5462 5463 5464 5466 5468 5470 5471 5473 5475 5477 5478 5480 5481 5483 5484 5486 5487 5488 5489 5491 5492 5493 5494 5495 5495 5495 5495
5452 5451 5451 5451 5451 5451 5451 5451 5452 5452 5452 5451 5451 5451 5452 5453 5454 5455 5456 5457 5458 5460 5462 5463 5465 5467 5469 5470 5472 5473 5475 5476 5477 5478 5480 5481 5482 5483 5484 5485 5485 5486 5486 5486
5447 5446 5446 5446 5446 5445 5445 5445 5445 5445 5445 5445 5445 5444 5445 5446 5447 5447 5448 5449 5451 5452 5454 5455 5457 5459 5461 5462 5464 5465 5467 5468 5469 5470 5471 5472 5473 5474 5475 5475 5476 5476 5476 5476
5442 5442 5441 5441 5440 5439 5439 5439 5439 5439 5439 5439 5438 5438 5438 5439 5440 5440 5441 5442 5443 5444 5445 5447 5448 5450 5452 5453 5455 5456 5458 5459 5460 5461 5462 5463 5464 5465 5465 5466 5466 5466 5466 5465
5437 5436 5436 5435 5434 5433 5433 5432 5432 5432 5432 5432 5432 5432 5432 5432 5433 5433 5434 5435 5435 5436 5437 5439 5440 5441 5443 5444 5445 5447 5448 5450 5451 5452 5453 5454 5454 5455 5455 5456 5456 5456 5455 5455
5432 5431 5430 5429 5428 5427 5426 5426 5425 5425 5425 5425 5425 5425 5425 5425 5426 5426 5427 5427 5428 5429 5430 5431 5432 5433 5434 5435 5436 5437 5438 5439 5441 5442 5442 5443 5444 5445 5445 5445 5445 5445 5445 5445
5427 5425 5424 5423 5422 5421 5420 5419 5418 5418 5418 5418 5418 5418 5418 5418 5418 5418 5419 5420 5420 5421 5422 5422 5423 5424 5425 5426 5427 5428 5429 5429 5430 5431 5432 5432 5433 5434 5434 5434 5435 5434 5434 5434
5421 5420 5418 5417 5415 5414 5413 5412 5412 5411 5411 5411 5410 5410 5410 5410 5410 5411 5411 5412 5412 5413 5413 5414 5415 5416 5417 5417 5418 5418 5419 5419 5420 5420 5421 5422 5422 5422 5423 5423 5424 5424 5424 5423
5416 5414 5412 5411 5409 5408 5407 5406 5405 5404 5404 5403 5403 5403 5402 5403 5403 5403 5403 5403 5404 5404 5404 5405 5406 5407 5407 5408 5408 5409 5409 5409 5410 5410 5410 5411 5411 5411 5412 5412 5412 5413 5413 5413
5410 5408 5406 5405 5403 5402 5401 5399 5398 5397 5397 5396 5395 5395 5395 5395 5395 5395 5395 5395 5395 5396 5396 5396 5397 5397 5397 5398 5398 5398 5399 5399 5399 5399 5400 5400 5400 5401 5401 5401 5402 5402 5402 5403
5404 5402 5401 5399 5397 5396 5394 5393 5392 5390 5390 5389 5388 5388 5388 5388 5388 5387 5387 5387 5387 5387 5387 5387 5387 5387 5388 5388 5388 5388 5389 5389 5389 5390 5390 5390 5390 5391 5391 5392 5392 5393 5393 5393
5398 5397 5395 5393 5392 5390 5388 5387 5385 5384 5383 5382 5382 5381 5381 5380 5380 5380 5379 5379 5378 5378 5378 5378 5378 5378 5378 5379 5379 5379 5379 5379 5380 5380 5380 5381 5381 5381 5382 5382 5383 5383 5384 5384
5392 5391 5389 5387 5386 5384 5383 5381 5380 5378 5377 5376 5375 5374 5374 5373 5372 5372 5371 5371 5370 5370 5370 5370 5370 5370 5370 5370 5370 5371 5371 5371 5371 5371 5372 5372 5372 5373 5373 5374 5374 5375 5375 5376
5387 5385 5383 5381 5380 5378 5377 5375 5374 5373 5372 5370 5369 5368 5367 5366 5365 5365 5364 5364 5363 5363 5363 5363 5363 5363 5363 5363 5363 5363 5363 5363 5363 5363 5364 5364 5364 5365 5365 5366 5367 5367 5368 5368